Location: The Decker-Grebner-Van Zandt Observatory
(40.8442°N, 89.8218°W)
Time: 22:38:59
(UTC-06:00)

Starlink Launch 2 trailer - Visible Passes

Search period start: 09 December 2019 00:00
Search period end: 19 December 2019 00:00
Orbit: 279 x 281 km, 53.0° (Epoch: 13 November)

Date Brightness Start Highest point End Pass type
(mag) Time Alt. Az. Time Alt. Az. Time Alt. Az.
09 Dec 4.1 05:24:15 29° ENE 05:24:15 29° ENE 05:26:01 10° ESE visible
10 Dec 3.6 05:26:26 39° ESE 05:26:26 39° ESE 05:28:08 10° SE visible
11 Dec 4.2 05:28:40 25° SSE 05:28:40 25° SSE 05:29:58 10° SSE visible
12 Dec 5.1 05:31:00 12° S 05:31:00 12° S 05:31:21 10° S visible
